This demonstration page uses our WeatherBlox Daily Observations layout. Learn more.

Left ArrowRight Arrow

44.8408, -93.29828

Hourly Observations for November 6, 2019

Temp ( °F °C ) Dew Point ( °F °C ) Humidity (%) Winds ( mph kmh ) Pressure ( in mb ) Visibility ( mi km ) Precip ( " mm )
12:53 am 00:53 Cloudy 28 -2.2 20 -6.7 72 72 WNW 5 7 30.32 1027 10 16 0.00 0.00
1:53 am 01:53 Cloudy 28 -2.2 20 -6.7 72 72 NNW 3 6 30.31 1026 10 16 0.00 0.00
2:53 am 02:53 Cloudy 28 -2.2 21 -6.1 75 75 Calm 30.31 1027 10 16 0.00 0.00
3:53 am 03:53 Cloudy 29 -1.7 21 -6.1 72 72 Calm 30.30 1026 10 16 0.00 0.00
4:36 am 04:36 Cloudy with Light Snow 28 -2.2 20 -6.7 72 72 VRB 3 6 30.33 1027 2 3 0.00 0.00
4:48 am 04:48 Cloudy with Light Snow 28 -2 19 -7 69 69 NNE 3 6 30.34 1028 2 3 0.00 0.00
4:53 am 04:53 Cloudy with Light Snow 28 -2.2 19 -7.2 69 69 NE 3 6 30.32 1027 2 3 0.00 0.00
5:37 am 05:37 Cloudy with Light Snow 27 -2.8 20 -6.7 75 75 W 3 6 30.36 1028 2 3 0.00 0.00
5:53 am 05:53 Cloudy with Light Snow 27 -2.8 21 -6.1 78 78 NNW 3 6 30.34 1027 2 3 0.00 0.00
6:53 am 06:53 Cloudy with Light Snow 26 -3.3 22 -5.6 84 84 Calm 30.35 1028 2 3 0.02 0.51
7:02 am 07:02 Cloudy with Light Snow 26 -3.3 21 -6.1 81 81 WNW 3 6 30.38 1029 2 3 0.00 0.00
7:12 am 07:12 Cloudy with Light Snow 26 -3.3 22 -5.6 84 84 SW 5 7 30.38 1029 6 10 0.00 0.00
7:53 am 07:53 Cloudy 27 -2.8 22 -5.6 81 81 Calm 30.36 1028 9 14 0.00 0.00
8:53 am 08:53 Cloudy 28 -2.2 15 -9.4 58 58 N 9 15 30.38 1029 10 16 0.00 0.00
9:53 am 09:53 Cloudy 30 -1.1 17 -8.3 58 58 N 10 17 30.40 1030 10 16 0.00 0.00
10:53 am 10:53 Mostly Cloudy 29 -1.7 16 -8.9 58 58 NNW 12 19 30.41 1030 10 16 0.00 0.00
11:53 am 11:53 Cloudy 30 -1.1 16 -8.9 56 56 N 14 22 30.41 1030 10 16 0.00 0.00
12:53 pm 12:53 Cloudy 30 -1.1 16 -8.9 56 56 NW 16 26 30.41 1030 10 16 0.00 0.00
1:53 pm 13:53 Cloudy 30 -1.1 14 -10 51 51 NNW 14 22 30.42 1030 10 16 0.00 0.00
2:53 pm 14:53 Cloudy 29 -1.7 13 -10.6 51 51 NNW 16 26 30.43 1031 10 16 0.00 0.00
3:53 pm 15:53 Cloudy 28 -2.2 9 -12.8 44 44 NNW 12 19 30.46 1031 10 16 0.00 0.00
4:53 pm 16:53 Mostly Cloudy 27 -2.8 9 -12.8 46 46 NNW 14 22 30.48 1032 10 16 0.00 0.00
5:53 pm 17:53 Mostly Cloudy 25 -3.9 5 -15 42 42 NNW 14 22 30.51 1033 10 16 0.00 0.00
6:53 pm 18:53 Mostly Cloudy 24 -4.4 5 -15 44 44 NNW 15 24 30.54 1034 10 16 0.00 0.00
7:53 pm 19:53 Partly Cloudy 23 -5 6 -14.4 48 48 NNW 10 17 30.55 1035 10 16 0.00 0.00
8:53 pm 20:53 Partly Cloudy 22 -5.6 6 -14.4 50 50 NNW 10 17 30.57 1035 10 16 0.00 0.00
9:53 pm 21:53 Mostly Clear 22 -5.6 4 -15.6 46 46 NNW 16 26 30.58 1036 10 16 0.00 0.00
10:53 pm 22:53 Clear 20 -6.7 4 -15.6 50 50 NNW 13 20 30.58 1036 10 16 0.00 0.00
11:53 pm 23:53 Clear 19 -7.2 4 -15.6 51 51 NNW 14 22 30.58 1036 10 16 0.00 0.00

Powered by AerisWeather